Location: Unspecified
(0.0000°N, 0.0000°E)
Time: 22:25:47
(UTC+00:00)

N. Korean satellite - Pass Details

Date: 16 January 2019
Orbit: 458 x 509 km, 97.2° (Epoch: 19 January)

Event Time Altitude Azimuth Distance (km) Brightness Sun altitude
Rises 05:10:28 0° 37° (NE) 2,571 10.4 -13.8°
Reaches altitude 10° 05:13:03 10° 57° (ENE) 1,683 9.8 -13.2°
Maximum altitude 05:15:33 18° 101° (E) 1,264 9.8 -12.6°
Drops below altitude 10° 05:18:02 10° 145° (SE) 1,669 10.2 -12.0°
Sets 05:20:35 0° 164° (SSE) 2,540 10.8 -11.4°
